This demonstration page uses our WeatherBlox Daily Observations layout. Learn more.

Hourly Observations for January 4, 2016

Temp ( °F °C ) Dew Point ( °F °C ) Humidity (%) Winds ( mph kmh ) Pressure ( in mb ) Visibility ( mi km ) Precip ( " mm )
12:15 am 00:15 Clear 19 -7 18 -8 93 93 ESE 5 7 30.53 1034 10 16.09344 0 0
12:35 am 00:35 Clear 18 -8 16 -9 93 93 ESE 5 7 30.53 1034 10 16.09344 0 0
12:55 am 00:55 Clear 19 -7 18 -8 93 93 Calm 30.53 1034 10 16.09344 0 0
1:15 am 01:15 Clear 18 -8 16 -9 93 93 Calm 30.53 1034 10 16.09344 0 0
1:35 am 01:35 Clear 18 -8 16 -9 93 93 Calm 30.53 1034 10 16.09344 0 0
1:55 am 01:55 Clear 18 -8 16 -9 93 93 Calm 30.53 1034 10 16.09344 0 0
2:15 am 02:15 Clear 19 -7 18 -8 93 93 Calm 30.53 1034 10 16.09344 0 0
2:35 am 02:35 Clear 18 -8 16 -9 93 93 Calm 30.53 1034 10 16.09344 0 0
2:55 am 02:55 Clear 18 -8 18 -8 100 100 Calm 30.53 1034 10 16.09344 0 0
3:15 am 03:15 Clear 16 -9 14 -10 93 93 Calm 30.53 1034 7 11.265408 0 0
3:35 am 03:35 Clear 14 -10 12 -11 92 92 Calm 30.56 1035 10 16.09344 0 0
3:55 am 03:55 Clear 14 -10 12 -11 92 92 Calm 30.56 1035 10 16.09344 0 0
4:15 am 04:15 Clear 14 -10 10 -12 85 85 Calm 30.56 1035 10 16.09344 0 0
4:35 am 04:35 Clear 12 -11 10 -12 92 92 Calm 30.56 1035 10 16.09344 0 0
4:55 am 04:55 Clear 14 -10 10 -12 85 85 Calm 30.56 1035 10 16.09344 0 0
5:15 am 05:15 Clear 14 -10 12 -11 92 92 Calm 30.56 1035 10 16.09344 0 0
5:35 am 05:35 Clear 12 -11 9 -13 85 85 Calm 30.56 1035 10 16.09344 0 0
5:55 am 05:55 Clear 14 -10 12 -11 92 92 Calm 30.56 1035 10 16.09344 0 0
6:15 am 06:15 Clear 16 -9 14 -10 93 93 S 3 6 30.53 1034 10 16.09344 0 0
6:35 am 06:35 Clear 16 -9 14 -10 93 93 S 3 6 30.53 1034 10 16.09344 0 0
6:55 am 06:55 Clear 16 -9 12 -11 86 86 Calm 30.53 1034 10 16.09344 0 0
7:15 am 07:15 Clear 14 -10 12 -11 92 92 Calm 30.56 1035 10 16.09344 0 0
7:35 am 07:35 Clear with Mist and Fog 12 -11 10 -12 92 92 SE 3 6 30.56 1035 5 8.04672 0 0
7:55 am 07:55 Clear 12 -11 9 -13 85 85 SE 5 7 30.56 1035 10 16.09344 0 0
8:15 am 08:15 Sunny 14 -10 10 -12 85 85 SE 3 6 30.56 1035 10 16.09344 0 0
8:35 am 08:35 Sunny 16 -9 12 -11 86 86 Calm 30.53 1034 10 16.09344 0 0
8:55 am 08:55 Sunny 16 -9 14 -10 93 93 SSE 5 7 30.53 1034 7 11.265408 0 0
9:15 am 09:15 Sunny 19 -7 18 -8 93 93 SSE 5 7 30.53 1034 10 16.09344 0 0
9:35 am 09:35 Sunny 21 -6 19 -7 93 93 SSE 7 11 30.5 1033 10 16.09344 0 0
9:55 am 09:55 Sunny 21 -6 21 -6 100 100 S 8 13 30.5 1033 10 16.09344 0 0
10:15 am 10:15 Sunny 23 -5 21 -6 93 93 S 10 17 30.53 1034 10 16.09344 0 0
10:35 am 10:35 Sunny 25 -4 23 -5 93 93 S 10 17 30.53 1034 10 16.09344 0 0
10:55 am 10:55 undefined N/A N/A N/A undefined N/A N/A N/A 0 0
11:15 am 11:15 undefined 27 -3 25 -4 93 93 S 9 15 30.48 1032 N/A 0 0
11:35 am 11:35 Sunny 28 -2 25 -4 86 86 S 9 15 30.48 1032 10 16.09344 0.03 0.762
11:55 am 11:55 Sunny 30 -1 25 -4 80 80 S 10 17 30.45 1031 10 16.09344 0.03 0.762
12:15 pm 12:15 Sunny 28 -2 23 -5 80 80 S 10 17 30.45 1031 10 16.09344 0 0
12:35 pm 12:35 Sunny 30 -1 25 -4 80 80 S 12 19 30.45 1031 10 16.09344 0 0
12:55 pm 12:55 Sunny 32 0 25 -4 75 75 S 10 17 30.39 1029 10 16.09344 0 0
1:15 pm 13:15 Sunny 32 0 25 -4 75 75 S 13 20 30.39 1029 10 16.09344 0 0
1:35 pm 13:35 Sunny 34 1 23 -5 65 65 SSE 14 22 30.36 1028 10 16.09344 0 0
1:55 pm 13:55 Sunny 34 1 23 -5 65 65 SSE 13 20 30.36 1028 10 16.09344 0 0
2:15 pm 14:15 Sunny 34 1 23 -5 65 65 S 14 22 30.33 1027 10 16.09344 0 0
2:35 pm 14:35 Sunny 36 2 21 -6 56 56 S 15 24 30.3 1026 10 16.09344 0 0
2:55 pm 14:55 Sunny 36 2 21 -6 56 56 S 14 22 30.3 1026 10 16.09344 0 0
3:15 pm 15:15 Sunny 36 2 21 -6 56 56 S 14 22 30.3 1026 10 16.09344 0 0
3:35 pm 15:35 Sunny 36 2 21 -6 56 56 SSE 16 26 30.27 1025 10 16.09344 0 0
3:55 pm 15:55 Sunny 36 2 21 -6 56 56 SSE 15 24 30.27 1025 10 16.09344 0 0
4:15 pm 16:15 Sunny 34 1 21 -6 60 60 SSE 13 20 30.3 1026 10 16.09344 0 0
4:35 pm 16:35 Sunny 34 1 21 -6 60 60 SSE 15 24 30.3 1026 10 16.09344 0 0
4:55 pm 16:55 Sunny 32 0 21 -6 64 64 SSE 13 20 30.3 1026 10 16.09344 0 0
5:15 pm 17:15 Sunny 30 -1 21 -6 69 69 SSE 9 15 30.3 1026 10 16.09344 0 0
5:35 pm 17:35 Clear 28 -2 21 -6 74 74 SSE 9 15 30.33 1027 10 16.09344 0 0
5:55 pm 17:55 Clear 27 -3 21 -6 80 80 SSE 9 15 30.33 1027 10 16.09344 0 0
6:15 pm 18:15 Clear 27 -3 21 -6 80 80 SSE 12 19 30.33 1027 10 16.09344 0 0
6:35 pm 18:35 Clear 27 -3 19 -7 74 74 SSE 13 20 30.33 1027 10 16.09344 0 0
6:55 pm 18:55 Clear 25 -4 19 -7 80 80 SSE 12 19 30.33 1027 10 16.09344 0 0
7:15 pm 19:15 Clear 23 -5 18 -8 80 80 SSE 12 19 30.36 1028 10 16.09344 0 0
7:35 pm 19:35 Clear 23 -5 18 -8 80 80 SE 10 17 30.36 1028 10 16.09344 0 0
7:55 pm 19:55 Clear 21 -6 18 -8 86 86 SSE 9 15 30.36 1028 10 16.09344 0 0
8:15 pm 20:15 Clear 21 -6 18 -8 86 86 SSE 12 19 30.36 1028 7 11.265408 0 0
8:35 pm 20:35 Clear 21 -6 18 -8 86 86 SSE 10 17 30.36 1028 7 11.265408 0 0
8:55 pm 20:55 Clear 19 -7 18 -8 93 93 SSE 12 19 30.36 1028 7 11.265408 0 0
9:15 pm 21:15 Clear with Mist and Fog 19 -7 18 -8 93 93 SSE 12 19 30.36 1028 5 8.04672 0 0
9:35 pm 21:35 Clear with Mist and Fog 19 -7 18 -8 93 93 SSE 10 17 30.36 1028 5 8.04672 0 0
9:55 pm 21:55 Clear 19 -7 18 -8 93 93 SSE 10 17 30.33 1027 7 11.265408 0 0
10:15 pm 22:15 Partly Cloudy 19 -7 18 -8 93 93 SSE 12 19 30.33 1027 7 11.265408 0 0
10:35 pm 22:35 Cloudy 21 -6 19 -7 93 93 SSE 15 24 30.33 1027 7 11.265408 0 0
10:55 pm 22:55 Cloudy 21 -6 19 -7 93 93 S 17 28 30.33 1027 7 11.265408 0 0
11:15 pm 23:15 Cloudy with Mist and Fog 21 -6 21 -6 100 100 S 20 31 30.33 1027 5 8.04672 0 0
11:35 pm 23:35 Cloudy with Mist and Fog 23 -5 21 -6 93 93 S 18 30 30.27 1025 5 8.04672 0 0
11:55 pm 23:55 Cloudy with Mist and Fog 23 -5 21 -6 93 93 S 16 26 30.3 1026 5 8.04672 0 0

Powered by AerisWeather